Location: ????????
(55.6189°N, 38.3031°E)
Time: 15:36:52
(UTC+00:00)

SL-16 R/B - Pass Details

Date: 26 February 2020
Orbit: 843 x 847 km, 71.0° (Epoch: 31 March)

Event Time Altitude Azimuth Distance (km) Brightness Sun altitude
Exits shadow 00:58:14 69° 5° (N) 909 2.3 -29.4°
Drops below altitude 10° 01:03:17 10° 33° (NNE) 2,478 5.4 -28.7°
Sets 01:05:44 0° 35° (NE) 3,416 6.3 -28.4°
